Home   Weather   Pierre   Past weeks

Flag for USA Past Weather in Pierre, South Dakota, USA — Yesterday and Last 2 Weeks

Now
42 °F

Clear.


Feels Like: 34 °F
Forecast: 33 / 39 °F
Wind: 16 mph from North

Location: Pierre Regional Airport

Current Time: Apr 24, 2017 at 9:57:04 pm

Latest Report: Apr 24, 2017 at 8:53 pm


Visibility: 10 mi

Pressure: 29.64 "Hg

Humidity: 76%

Dew Point: 35 °F

Location of PierreLocation

Past Weather in Pierre — Graph

°F

Pierre Temperature Yesterday

Maximum temperature yesterday: 77 °F (at 4:53 pm)
Minimum temperature yesterday: 45 °F (at 7:53 am)
Average temperature yesterday: 59 °F

High & Low Weather Summary for the Past Weeks

 TemperatureHumidityPressure
High77 °F (Apr 23, 4:53 pm)100% (Apr 13, 4:38 am)30.29 "Hg (Apr 13, 4:38 am)
Low24 °F (Apr 11, 6:53 am)20% (Apr 16, 2:53 pm)29.48 "Hg (Apr 24, 5:53 am)
Average48 °F70%30.00 "Hg
* Reported Apr 9 8:53 pm — Apr 24 8:53 pm, Pierre, Weather by CustomWeather, © 2017

Note: Actual official high and low records may vary slightly from our data, if they occured in-between our weather recording intervals... More about our weather records

Advertising

Pierre Weather History for the Previous 24 Hours

Scroll right to see more
 ConditionsComfort  
Time TempWeatherWind HumidityBarometerVisibility
8:53 pm
Mon, Apr 24
42 °FClear.16 mph76%29.64 "Hg10 mi
7:53 pm46 °FPassing clouds.16 mph71%29.62 "Hg10 mi
6:53 pm50 °FPartly sunny.14 mph63%29.61 "Hg10 mi
5:53 pm52 °FPartly sunny.15 mph61%29.60 "Hg10 mi
4:53 pm53 °FSunny.9 mph59%29.59 "Hg10 mi
4:09 pm51 °FBroken clouds.15 mph61%29.58 "Hg10 mi
3:53 pm52 °FMostly cloudy.12 mph61%29.59 "Hg10 mi
2:53 pm47 °FOvercast.12 mph69%29.60 "Hg10 mi
1:53 pm44 °FOvercast.14 mph73%29.60 "Hg10 mi
12:53 pm41 °FOvercast.20 mph80%29.61 "Hg10 mi
11:53 am40 °FOvercast.18 mph86%29.60 "Hg10 mi
10:53 am40 °FLow clouds.21 mph89%29.57 "Hg10 mi
9:53 am39 °FLight rain. Low clouds.18 mph93%29.56 "Hg8 mi
8:53 am40 °FLow clouds.15 mph86%29.54 "Hg10 mi
8:06 am41 °FLight rain. Partly sunny.21 mph82%29.53 "Hg10 mi
7:36 am40 °FScattered clouds.21 mph86%29.55 "Hg10 mi
6:53 am39 °FPartly sunny.14 mph89%29.50 "Hg10 mi
5:53 am39 °FPassing clouds.6 mph89%29.48 "Hg10 mi
4:53 am40 °FPassing clouds.3 mph89%29.52 "Hg10 mi
3:53 am40 °FLight rain. Passing clouds.10 mph86%29.53 "Hg10 mi
2:53 am42 °FLight rain. Passing clouds.22 mph82%29.56 "Hg10 mi
1:53 am45 °FClear.6 mph82%29.54 "Hg10 mi
12:53 am46 °FClear.7 mph79%29.55 "Hg10 mi
11:53 pm
Sun, Apr 23
48 °FClear.7 mph77%29.56 "Hg10 mi
10:53 pm50 °FClear.12 mph74%29.58 "Hg10 mi
9:53 pm56 °FClear.10 mph67%29.59 "Hg10 mi
Weather by CustomWeather, © 2017

See weather overviewHow to use our weather pages